sat.trackr.live / text

‹ back to catalog

AC1-003

NORAD 66689 · 2025-276Z

PAYLOAD ACTIVE UNKNOWN

§ Identity

Operator
Country
UK
Launch date
2025-11-28
Launch site
AFWTR
Launch vehicle
Mass (kg)
RCS (m²)

External: N2YO · Heavens-Above · Gunter

§ Orbital elements

Epoch: 2026-05-25T02:51:27.646272Z

Period
94.85 min
Inclination
97.4211°
Eccentricity
0.0004471
Mean motion
15.18108750 rev/d
Perigee alt
508.5 km
Apogee alt
514.6 km
Semi-major
6,889.7 km
B*
9.6306e-5
RAAN
218.8542°
Arg perigee
93.4594°
Mean anomaly
266.7151°
Rev number
2,690

§ Raw data

AC1-0031 66689U 25276Z   26145.11906998  .00001897  00000+0  96306-4 0  99902 66689  97.4211 218.8542 0004471  93.4594 266.7151 15.18108750 26902

JSON: /api/v1/satellites/66689 · /tle

For live sub-satellite position, see the globe view (requires WebGL).

§ Visibility from observer

Set your observer location to see the next 7 days of passes ≥ 10°. The values pass through the URL so the page stays shareable.

No JS? Fill the form by hand. The geolocation button needs JavaScript.